Time,TemperatureF,DewpointF,PressureIn,WindDirection,WindDirectionDegrees,WindSpeedMPH,WindSpeedGustMPH,Humidity,HourlyPrecipIn,Conditions,Clouds,dailyrainin,SoftwareType,DateUTC
2013-05-10 00:02:00,46.0,45.0,-100.00,NNE,20,13.0,22.0,95,0.00,,,-99.99,,2013-05-10 05:02:00,
2013-05-10 00:12:00,46.0,45.0,-100.00,NNE,25,13.0,21.0,95,0.00,,,-99.99,,2013-05-10 05:12:00,
2013-05-10 00:22:00,46.0,45.0,-100.00,NNE,20,14.0,20.0,95,0.00,,,-99.99,,2013-05-10 05:22:00,
2013-05-10 00:32:00,46.0,44.0,-100.00,NNE,25,13.0,17.0,95,0.00,,,-99.99,,2013-05-10 05:32:00,
2013-05-10 00:42:00,46.0,44.0,-100.00,NNE,25,13.0,17.0,95,0.00,,,-99.99,,2013-05-10 05:42:00,
2013-05-10 00:52:00,45.0,44.0,-100.00,NNE,20,13.0,20.0,95,0.00,,,-99.99,,2013-05-10 05:52:00,
2013-05-10 01:01:00,45.0,44.0,-100.00,NNE,20,13.0,20.0,95,0.00,,,-99.99,,2013-05-10 06:01:00,
2013-05-10 01:12:00,45.0,44.0,-100.00,NNE,20,12.0,17.0,95,0.00,,,-99.99,,2013-05-10 06:12:00,
2013-05-10 01:21:00,45.0,44.0,-100.00,NNE,15,14.0,21.0,95,0.00,,,-99.99,,2013-05-10 06:21:00,
2013-05-10 01:32:00,45.0,44.0,-100.00,NNE,20,12.0,17.0,95,0.00,,,-99.99,,2013-05-10 06:32:00,
2013-05-10 01:42:00,45.0,44.0,-100.00,NNE,20,12.0,17.0,95,0.00,,,-99.99,,2013-05-10 06:42:00,
2013-05-10 01:51:00,45.0,44.0,-100.00,NNE,15,15.0,21.0,95,0.00,,,-99.99,,2013-05-10 06:51:00,
2013-05-10 02:02:00,45.0,44.0,-100.00,NNE,20,14.0,21.0,95,0.00,,,-99.99,,2013-05-10 07:02:00,
2013-05-10 02:12:00,45.0,43.0,-100.00,NNE,20,14.0,19.0,95,0.00,,,-99.99,,2013-05-10 07:12:00,
2013-05-10 02:22:00,45.0,43.0,-100.00,NNE,20,14.0,19.0,95,0.00,,,-99.99,,2013-05-10 07:22:00,
2013-05-10 02:31:00,45.0,43.0,-100.00,NNE,20,12.0,19.0,95,0.00,,,-99.99,,2013-05-10 07:31:00,
2013-05-10 02:42:00,44.0,43.0,-100.00,NNE,20,17.0,22.0,95,0.00,,,-99.99,,2013-05-10 07:42:00,
2013-05-10 02:52:00,44.0,43.0,-100.00,North,10,14.0,24.0,95,0.00,,,-99.99,,2013-05-10 07:52:00,
2013-05-10 03:02:00,44.0,43.0,-100.00,North,10,14.0,24.0,95,0.00,,,-99.99,,2013-05-10 08:02:00,
2013-05-10 03:12:00,44.0,43.0,-100.00,NNE,20,9.0,22.0,95,0.00,,,-99.99,,2013-05-10 08:12:00,
2013-05-10 03:21:00,44.0,43.0,-100.00,NNE,15,14.0,21.0,95,0.00,,,-99.99,,2013-05-10 08:21:00,
2013-05-10 03:32:00,44.0,43.0,-100.00,NNE,20,16.0,20.0,95,0.00,,,-99.99,,2013-05-10 08:32:00,
2013-05-10 03:42:00,44.0,43.0,-100.00,NNE,25,11.0,18.0,94,0.00,,,-99.99,,2013-05-10 08:42:00,
2013-05-10 03:52:00,44.0,42.0,-100.00,NNE,25,13.0,21.0,94,0.00,,,-99.99,,2013-05-10 08:52:00,
2013-05-10 04:01:00,44.0,42.0,-100.00,NNE,25,13.0,21.0,94,0.00,,,-99.99,,2013-05-10 09:01:00,
2013-05-10 04:11:00,44.0,42.0,-100.00,NNE,25,12.0,19.0,94,0.00,,,-99.99,,2013-05-10 09:11:00,
2013-05-10 04:21:00,44.0,42.0,-100.00,NNE,25,12.0,19.0,94,0.00,,,-99.99,,2013-05-10 09:21:00,
2013-05-10 04:32:00,44.0,42.0,-100.00,NNE,20,12.0,20.0,93,0.00,,,-99.99,,2013-05-10 09:32:00,
2013-05-10 04:42:00,44.0,42.0,-100.00,NNE,20,12.0,20.0,93,0.00,,,-99.99,,2013-05-10 09:42:00,
2013-05-10 04:52:00,44.0,42.0,-100.00,NNE,20,13.0,21.0,93,0.00,,,-99.99,,2013-05-10 09:52:00,
2013-05-10 05:03:00,44.0,42.0,-100.00,NNE,20,13.0,21.0,93,0.00,,,-99.99,,2013-05-10 10:03:00,
2013-05-10 05:12:00,43.0,41.0,-100.00,NNE,25,10.0,17.0,92,0.00,,,-99.99,,2013-05-10 10:12:00,
2013-05-10 05:23:00,43.0,41.0,-100.00,NNE,25,10.0,17.0,92,0.00,,,-99.99,,2013-05-10 10:23:00,
2013-05-10 05:32:00,43.0,41.0,-100.00,North,10,11.0,14.0,92,0.00,,,-99.99,,2013-05-10 10:32:00,
2013-05-10 05:42:00,43.0,41.0,-100.00,North,10,11.0,14.0,92,0.00,,,-99.99,,2013-05-10 10:42:00,
2013-05-10 05:52:00,42.0,40.0,-100.00,North,10,8.0,15.0,92,0.00,,,-99.99,,2013-05-10 10:52:00,
2013-05-10 06:02:00,42.0,40.0,-100.00,NNE,25,10.0,15.0,92,0.00,,,-99.99,,2013-05-10 11:02:00,
2013-05-10 06:12:00,42.0,40.0,-100.00,NNE,20,13.0,19.0,91,0.00,,,-99.99,,2013-05-10 11:12:00,
2013-05-10 06:21:00,42.0,40.0,-100.00,North,10,10.0,14.0,91,0.00,,,-99.99,,2013-05-10 11:21:00,
2013-05-10 06:32:00,41.0,39.0,-100.00,NNE,15,12.0,21.0,91,0.00,,,-99.99,,2013-05-10 11:32:00,
2013-05-10 06:42:00,41.0,39.0,-100.00,NNE,15,12.0,21.0,91,0.00,,,-99.99,,2013-05-10 11:42:00,
2013-05-10 06:51:00,41.0,38.0,-100.00,North,5,9.0,16.0,90,0.00,,,-99.99,,2013-05-10 11:51:00,
2013-05-10 07:01:00,41.0,38.0,-100.00,North,5,9.0,16.0,90,0.00,,,-99.99,,2013-05-10 12:01:00,
2013-05-10 07:11:00,41.0,38.0,-100.00,NNE,15,9.0,15.0,90,0.00,,,-99.99,,2013-05-10 12:11:00,
2013-05-10 07:21:00,41.0,39.0,-100.00,NNE,15,9.0,16.0,90,0.00,,,-99.99,,2013-05-10 12:21:00,
2013-05-10 07:32:00,42.0,38.0,-100.00,NNE,30,9.0,15.0,87,0.00,,,-99.99,,2013-05-10 12:32:00,
2013-05-10 07:42:00,42.0,38.0,-100.00,NNE,30,9.0,15.0,87,0.00,,,-99.99,,2013-05-10 12:42:00,
2013-05-10 07:51:00,42.0,38.0,-100.00,North,10,11.0,17.0,84,0.00,,,-99.99,,2013-05-10 12:51:00,
2013-05-10 08:01:00,42.0,38.0,-100.00,North,10,11.0,17.0,84,0.00,,,-99.99,,2013-05-10 13:01:00,
2013-05-10 08:11:00,42.0,38.0,-100.00,NNE,25,10.0,16.0,84,0.00,,,-99.99,,2013-05-10 13:11:00,
2013-05-10 08:21:00,43.0,38.0,-100.00,NNE,25,9.0,14.0,82,0.00,,,-99.99,,2013-05-10 13:21:00,
2013-05-10 08:32:00,44.0,39.0,-100.00,North,10,10.0,16.0,81,0.00,,,-99.99,,2013-05-10 13:32:00,
2013-05-10 08:41:00,44.0,39.0,-100.00,North,10,10.0,16.0,81,0.00,,,-99.99,,2013-05-10 13:41:00,
2013-05-10 08:52:00,44.0,38.0,-100.00,NNE,15,12.0,16.0,80,0.00,,,-99.99,,2013-05-10 13:52:00,
2013-05-10 09:02:00,45.0,39.0,-100.00,NNE,30,9.0,15.0,80,0.00,,,-99.99,,2013-05-10 14:02:00,
2013-05-10 09:11:00,45.0,40.0,-100.00,NNE,25,9.0,13.0,80,0.00,,,-99.99,,2013-05-10 14:11:00,
2013-05-10 09:21:00,46.0,40.0,-100.00,NNE,25,9.0,13.0,80,0.00,,,-99.99,,2013-05-10 14:21:00,
2013-05-10 09:32:00,46.0,41.0,-100.00,NE,45,7.0,14.0,82,0.00,,,-99.99,,2013-05-10 14:32:00,
2013-05-10 09:42:00,46.0,41.0,-100.00,NE,45,7.0,14.0,82,0.00,,,-99.99,,2013-05-10 14:42:00,
2013-05-10 09:51:00,47.0,42.0,-100.00,NNE,25,7.0,14.0,83,0.00,,,-99.99,,2013-05-10 14:51:00,
2013-05-10 10:02:00,47.0,42.0,-100.00,NNE,25,7.0,14.0,83,0.00,,,-99.99,,2013-05-10 15:02:00,
2013-05-10 10:20:00,-999.0,-99.9,-100.00,NNE,20,11.0,14.0,82,0.00,,,-99.99,,2013-05-10 15:20:00,
2013-05-10 10:32:00,48.0,43.0,-100.00,NNE,25,6.0,11.0,82,0.00,,,-99.99,,2013-05-10 15:32:00,
2013-05-10 10:42:00,48.0,43.0,-100.00,NNE,25,6.0,11.0,82,0.00,,,-99.99,,2013-05-10 15:42:00,
2013-05-10 10:52:00,49.0,44.0,-100.00,NNE,25,7.0,11.0,81,0.00,,,-99.99,,2013-05-10 15:52:00,
2013-05-10 11:02:00,49.0,44.0,-100.00,NNE,25,7.0,11.0,81,0.00,,,-99.99,,2013-05-10 16:02:00,
2013-05-10 11:12:00,49.0,44.0,-100.00,NE,45,7.0,13.0,81,0.00,,,-99.99,,2013-05-10 16:12:00,
2013-05-10 11:23:00,50.0,44.0,-100.00,North,5,7.0,12.0,79,0.00,,,-99.99,,2013-05-10 16:23:00,
2013-05-10 11:32:00,53.0,45.0,-100.00,NW,325,7.0,11.0,76,0.00,,,-99.99,,2013-05-10 16:32:00,
2013-05-10 11:42:00,53.0,45.0,-100.00,NW,325,7.0,11.0,76,0.00,,,-99.99,,2013-05-10 16:42:00,
2013-05-10 11:52:00,53.0,45.0,-100.00,North,5,9.0,12.0,73,0.00,,,-99.99,,2013-05-10 16:52:00,
2013-05-10 12:02:00,53.0,45.0,-100.00,North,5,9.0,12.0,73,0.00,,,-99.99,,2013-05-10 17:02:00,
2013-05-10 12:12:00,54.0,45.0,-100.00,North,355,4.0,11.0,73,0.00,,,-99.99,,2013-05-10 17:12:00,
2013-05-10 12:21:00,54.0,45.0,-100.00,North,10,4.0,10.0,70,0.00,,,-99.99,,2013-05-10 17:21:00,
2013-05-10 12:32:00,56.0,46.0,-100.00,NNW,330,7.0,9.0,68,0.00,,,-99.99,,2013-05-10 17:32:00,
2013-05-10 12:42:00,56.0,46.0,-100.00,NNW,330,7.0,9.0,68,0.00,,,-99.99,,2013-05-10 17:42:00,
2013-05-10 12:52:00,57.0,46.0,-100.00,NNW,335,4.0,11.0,67,0.00,,,-99.99,,2013-05-10 17:52:00,
2013-05-10 13:10:00,-999.0,-99.9,-100.00,NNW,335,4.0,11.0,67,0.00,,,-99.99,,2013-05-10 18:10:00,
2013-05-10 13:21:00,58.0,46.0,-100.00,NW,315,7.0,11.0,64,0.00,,,-99.99,,2013-05-10 18:21:00,
2013-05-10 13:34:00,59.0,47.0,-100.00,NNW,345,7.0,13.0,64,0.00,,,-99.99,,2013-05-10 18:34:00,
2013-05-10 13:43:00,59.0,47.0,-100.00,NNW,345,7.0,13.0,64,0.00,,,-99.99,,2013-05-10 18:43:00,
2013-05-10 13:54:00,59.0,46.0,-100.00,NNW,335,7.0,12.0,62,0.00,,,-99.99,,2013-05-10 18:54:00,
2013-05-10 14:02:00,59.0,46.0,-100.00,NNW,335,7.0,12.0,62,0.00,,,-99.99,,2013-05-10 19:02:00,
2013-05-10 14:11:00,60.0,47.0,-100.00,NW,310,10.0,12.0,61,0.00,,,-99.99,,2013-05-10 19:11:00,
2013-05-10 14:21:00,60.0,47.0,-100.00,NW,310,10.0,12.0,61,0.00,,,-99.99,,2013-05-10 19:21:00,
2013-05-10 14:32:00,62.0,47.0,-100.00,NW,320,6.0,12.0,56,0.00,,,-99.99,,2013-05-10 19:32:00,
2013-05-10 14:42:00,62.0,47.0,-100.00,NW,320,6.0,12.0,56,0.00,,,-99.99,,2013-05-10 19:42:00,
2013-05-10 14:52:00,62.0,47.0,-100.00,NW,320,6.0,12.0,56,0.00,,,-99.99,,2013-05-10 19:52:00,
2013-05-10 15:01:00,62.0,47.0,-100.00,NW,320,6.0,12.0,56,0.00,,,-99.99,,2013-05-10 20:01:00,
2013-05-10 15:12:00,62.0,45.0,-100.00,NNE,20,6.0,9.0,52,0.00,,,-99.99,,2013-05-10 20:12:00,
2013-05-10 15:21:00,63.0,46.0,-100.00,NNW,330,6.0,9.0,53,0.00,,,-99.99,,2013-05-10 20:21:00,
2013-05-10 15:32:00,65.0,45.0,-100.00,NW,315,7.0,11.0,50,0.00,,,-99.99,,2013-05-10 20:32:00,
2013-05-10 15:41:00,65.0,45.0,-100.00,NW,315,7.0,11.0,50,0.00,,,-99.99,,2013-05-10 20:41:00,
2013-05-10 15:52:00,65.0,45.0,-100.00,WNW,300,7.0,12.0,47,0.00,,,-99.99,,2013-05-10 20:52:00,
2013-05-10 16:02:00,65.0,45.0,-100.00,WNW,300,7.0,12.0,47,0.00,,,-99.99,,2013-05-10 21:02:00,
2013-05-10 16:11:00,65.0,45.0,-100.00,WNW,300,7.0,12.0,47,0.00,,,-99.99,,2013-05-10 21:11:00,
2013-05-10 16:24:00,66.0,44.0,-100.00,NW,310,6.0,10.0,44,0.00,,,-99.99,,2013-05-10 21:24:00,
2013-05-10 16:32:00,65.0,42.0,-100.00,NW,315,10.0,13.0,42,0.00,,,-99.99,,2013-05-10 21:32:00,
2013-05-10 16:43:00,65.0,42.0,-100.00,NW,315,10.0,13.0,42,0.00,,,-99.99,,2013-05-10 21:43:00,
2013-05-10 16:52:00,67.0,42.0,-100.00,NW,315,6.0,9.0,38,0.00,,,-99.99,,2013-05-10 21:52:00,
2013-05-10 17:02:00,67.0,42.0,-100.00,NW,315,6.0,9.0,38,0.00,,,-99.99,,2013-05-10 22:02:00,
2013-05-10 17:12:00,68.0,42.0,-100.00,WNW,300,9.0,11.0,38,0.00,,,-99.99,,2013-05-10 22:12:00,
2013-05-10 17:22:00,67.0,41.0,-100.00,NW,315,6.0,11.0,38,0.00,,,-99.99,,2013-05-10 22:22:00,
2013-05-10 17:32:00,65.0,39.0,-100.00,West,280,4.0,9.0,38,0.00,,,-99.99,,2013-05-10 22:32:00,
2013-05-10 17:42:00,65.0,39.0,-100.00,West,280,4.0,9.0,38,0.00,,,-99.99,,2013-05-10 22:42:00,
2013-05-10 17:52:00,65.0,39.0,-100.00,WNW,300,3.0,8.0,37,0.00,,,-99.99,,2013-05-10 22:52:00,
2013-05-10 18:02:00,65.0,39.0,-100.00,WNW,300,3.0,8.0,37,0.00,,,-99.99,,2013-05-10 23:02:00,
2013-05-10 18:12:00,65.0,37.0,-100.00,NW,325,6.0,9.0,36,0.00,,,-99.99,,2013-05-10 23:12:00,
2013-05-10 18:22:00,65.0,37.0,-100.00,NW,320,7.0,7.0,35,0.00,,,-99.99,,2013-05-10 23:22:00,
2013-05-10 18:32:00,65.0,37.0,-100.00,NW,310,6.0,7.0,35,0.00,,,-99.99,,2013-05-10 23:32:00,
2013-05-10 18:41:00,64.0,36.0,-100.00,NNW,330,6.0,9.0,35,0.00,,,-99.99,,2013-05-10 23:41:00,
2013-05-10 18:52:00,63.0,36.0,-100.00,NW,310,7.0,9.0,35,0.00,,,-99.99,,2013-05-10 23:52:00,
2013-05-10 19:02:00,63.0,36.0,-100.00,NW,310,7.0,9.0,35,0.00,,,-99.99,,2013-05-11 00:02:00,
2013-05-10 19:11:00,63.0,34.0,-100.00,NNE,15,1.0,6.0,34,0.00,,,-99.99,,2013-05-11 00:11:00,
2013-05-10 19:21:00,63.0,35.0,-100.00,NNW,330,4.0,5.0,34,0.00,,,-99.99,,2013-05-11 00:21:00,
2013-05-10 19:32:00,62.0,34.0,-100.00,WNW,295,2.0,6.0,34,0.00,,,-99.99,,2013-05-11 00:32:00,
2013-05-10 19:42:00,62.0,34.0,-100.00,WNW,295,2.0,6.0,34,0.00,,,-99.99,,2013-05-11 00:42:00,
2013-05-10 19:51:00,61.0,34.0,-100.00,North,0,2.0,3.0,36,0.00,,,-99.99,,2013-05-11 00:51:00,
2013-05-10 20:01:00,61.0,34.0,-100.00,North,0,2.0,3.0,36,0.00,,,-99.99,,2013-05-11 01:01:00,
2013-05-10 20:11:00,61.0,33.0,-100.00,North,10,1.0,2.0,35,0.00,,,-99.99,,2013-05-11 01:11:00,
2013-05-10 20:21:00,60.0,33.0,-100.00,North,0,1.0,2.0,36,0.00,,,-99.99,,2013-05-11 01:21:00,
2013-05-10 20:32:00,56.0,35.0,-100.00,East,95,1.0,2.0,43,0.00,,,-99.99,,2013-05-11 01:32:00,
2013-05-10 20:42:00,56.0,35.0,-100.00,East,95,1.0,2.0,43,0.00,,,-99.99,,2013-05-11 01:42:00,
2013-05-10 20:52:00,55.0,35.0,-100.00,ESE,115,0.0,1.0,45,0.00,,,-99.99,,2013-05-11 01:52:00,
2013-05-10 21:02:00,55.0,35.0,-100.00,ESE,115,0.0,1.0,45,0.00,,,-99.99,,2013-05-11 02:02:00,
2013-05-10 21:11:00,54.0,35.0,-100.00,ENE,75,0.0,2.0,48,0.00,,,-99.99,,2013-05-11 02:11:00,
2013-05-10 21:21:00,52.0,36.0,-100.00,NNW,345,0.0,1.0,55,0.00,,,-99.99,,2013-05-11 02:21:00,
2013-05-10 21:32:00,48.0,40.0,-100.00,West,270,0.0,0.0,73,0.00,,,-99.99,,2013-05-11 02:32:00,
2013-05-10 21:42:00,48.0,40.0,-100.00,West,270,0.0,0.0,73,0.00,,,-99.99,,2013-05-11 02:42:00,
2013-05-10 21:51:00,48.0,41.0,-100.00,SW,225,0.0,0.0,77,0.00,,,-99.99,,2013-05-11 02:51:00,
2013-05-10 22:01:00,46.0,42.0,-100.00,SE,125,0.0,2.0,84,0.00,,,-99.99,,2013-05-11 03:01:00,
2013-05-10 22:11:00,46.0,42.0,-100.00,SE,125,0.0,2.0,84,0.00,,,-99.99,,2013-05-11 03:11:00,
2013-05-10 22:21:00,47.0,43.0,-100.00,East,95,0.0,1.0,85,0.00,,,-99.99,,2013-05-11 03:21:00,
2013-05-10 22:33:00,47.0,43.0,-100.00,North,5,0.0,1.0,84,0.00,,,-99.99,,2013-05-11 03:33:00,
2013-05-10 22:42:00,46.0,42.0,-100.00,NW,305,0.0,1.0,85,0.00,,,-99.99,,2013-05-11 03:42:00,
2013-05-10 22:53:00,46.0,42.0,-100.00,NW,305,0.0,1.0,85,0.00,,,-99.99,,2013-05-11 03:53:00,
2013-05-10 23:02:00,46.0,42.0,-100.00,NE,50,0.0,1.0,86,0.00,,,-99.99,,2013-05-11 04:02:00,
2013-05-10 23:12:00,46.0,42.0,-100.00,South,170,1.0,2.0,86,0.00,,,-99.99,,2013-05-11 04:12:00,
2013-05-10 23:23:00,45.0,42.0,-100.00,South,180,1.0,3.0,86,0.00,,,-99.99,,2013-05-11 04:23:00,
2013-05-10 23:33:00,45.0,41.0,-100.00,South,180,2.0,3.0,86,0.00,,,-99.99,,2013-05-11 04:33:00,
2013-05-10 23:43:00,45.0,41.0,-100.00,South,180,2.0,3.0,86,0.00,,,-99.99,,2013-05-11 04:43:00,
2013-05-10 23:52:00,45.0,42.0,-100.00,SSE,160,0.0,1.0,87,0.00,,,-99.99,,2013-05-11 04:52:00,